User: anonymous   Login
Location: Curupao
(10.4996°N, 66.6442°W)
Time: 13:00:25
(UTC+00:00)
Language:

ASTRO E2 - Orbit

View from above orbital plane
View from above orbital plane
View from above satellite
View from above satellite

Ground track
Ground track

The orbit data is extracted from the following two-line orbital elements,

1 28773U 05025A   24200.67576648  .00058688  00000-0  10534-2 0  9996
2 28773  31.3873 285.1408 0000853 208.7280 151.3329 15.48619225 51873
Epoch (UTC): 18 July 2024 16:13:06
Eccentricity: 0.0000853
inclination: 31.3873°
perigee height: 420 km
apogee height: 421 km
right ascension of ascending node: 285.1408°
argument of perigee: 208.7280°
revolutions per day: 15.48619225
mean anomaly at epoch: 151.3329°
orbit number at epoch: 5187

The dashed part of the orbit path shows where the satellite is in the earth's shadow,  

DLR